Location: ?????????
(38.4921°N, 22.9787°E)
Time: 04:27:14
(UTC+00:00)

Cosmos 1697 Rocket - Pass Details

Date: 08 December 2025
Orbit: 830 x 843 km, 71.0° (Epoch: 21 January)

Event Time Altitude Azimuth Distance (km) Brightness Sun altitude
Exits shadow 03:17:39 20° 202° (SSW) 1,831 4.3 -25.7°
Drops below altitude 10° 03:19:35 10° 190° (S) 2,449 5.1 -25.4°
Sets 03:22:11 0° 182° (S) 3,381 5.9 -24.9°
